Location: Aytr�
(46.1357°N, 1.1145°W)
Time: 15:25:52
(UTC+00:00)

BREEZE-M DEB (TANK) - Pass Details

Date: 03 March 2021
Orbit: 334 x 11905 km, 49.7° (Epoch: 14 April)

Event Time Altitude Azimuth Distance (km) Brightness Sun altitude
Rises 18:58:22 0° 204° (SSW) 2,290 6.9 -12.0°
Reaches altitude 10° 19:00:54 10° 175° (S) 1,265 5.2 -12.4°
Enters shadow 19:02:04 14° 144° (SE) 1,062 4.5 -12.6°
